TimeMST,TemperatureF,Dew PointF,Humidity,Sea Level PressureIn,VisibilityMPH,Wind Direction,Wind SpeedMPH,Gust SpeedMPH,PrecipitationIn,Events,Conditions,WindDirDegrees,DateUTC
12:54 AM,24.1,10.9,57,30.32,10.0,Calm,Calm,-,N/A,,Clear,0,2012-11-23 07:54:00
1:54 AM,23.0,12.0,63,30.32,10.0,Calm,Calm,-,N/A,,Clear,0,2012-11-23 08:54:00
2:54 AM,24.1,12.9,62,30.33,10.0,ESE,4.6,-,N/A,,Clear,110,2012-11-23 09:54:00
3:54 AM,25.0,12.9,60,30.32,10.0,Calm,Calm,-,N/A,,Clear,0,2012-11-23 10:54:00
4:54 AM,25.0,14.0,63,30.34,10.0,East,3.5,-,N/A,,Clear,90,2012-11-23 11:54:00
5:54 AM,42.1,18.0,38,30.35,10.0,ENE,12.7,-,N/A,,Clear,60,2012-11-23 12:54:00
6:54 AM,43.0,19.0,38,30.38,10.0,ENE,10.4,-,N/A,,Clear,60,2012-11-23 13:54:00
7:54 AM,44.1,17.1,34,30.41,10.0,ENE,15.0,-,N/A,,Clear,60,2012-11-23 14:54:00
8:54 AM,50.0,14.0,24,30.39,10.0,ENE,12.7,21.9,N/A,,Clear,60,2012-11-23 15:54:00
9:54 AM,52.0,14.0,22,30.38,10.0,ENE,11.5,-,N/A,,Clear,60,2012-11-23 16:54:00
10:54 AM,54.0,15.1,22,30.40,10.0,ENE,12.7,-,N/A,,Clear,60,2012-11-23 17:54:00
11:54 AM,57.9,15.1,19,30.38,10.0,ENE,11.5,-,N/A,,Clear,60,2012-11-23 18:54:00
12:54 PM,59.0,14.0,17,30.35,10.0,NE,11.5,-,N/A,,Clear,50,2012-11-23 19:54:00
1:54 PM,59.0,14.0,17,30.35,10.0,NE,15.0,-,N/A,,Clear,40,2012-11-23 20:54:00
2:54 PM,59.0,14.0,17,30.33,10.0,NE,12.7,-,N/A,,Clear,50,2012-11-23 21:54:00
3:54 PM,57.0,12.9,18,30.33,10.0,ENE,12.7,-,N/A,,Clear,70,2012-11-23 22:54:00
4:54 PM,53.1,12.9,20,30.35,10.0,NE,9.2,-,N/A,,Clear,50,2012-11-23 23:54:00
5:54 PM,39.9,12.0,32,30.34,10.0,ENE,3.5,-,N/A,,Clear,70,2012-11-24 00:54:00
6:54 PM,28.9,7.0,40,30.38,10.0,Calm,Calm,-,N/A,,Clear,0,2012-11-24 01:54:00
7:54 PM,28.0,6.1,39,30.39,10.0,Calm,Calm,-,N/A,,Clear,0,2012-11-24 02:54:00
8:54 PM,25.0,3.9,41,30.37,10.0,Calm,Calm,-,N/A,,Clear,0,2012-11-24 03:54:00
9:54 PM,21.9,3.9,46,30.39,10.0,NE,4.6,-,N/A,,Clear,50,2012-11-24 04:54:00
10:54 PM,24.1,6.1,46,30.37,10.0,NE,4.6,-,N/A,,Clear,50,2012-11-24 05:54:00
11:54 PM,23.0,5.0,46,30.35,10.0,Calm,Calm,-,N/A,,Clear,0,2012-11-24 06:54:00